GW1037 Weather Reports


Display with metric or nautical units.
time (UTC)temp
F
wind
direction
speed
MPH
gust
MPH
rain 1hr
in
rain 24hr
in
rain mn
in
humidity
%
barometer
mb
20260504202013 78 109 1.0 1.0 0.00 0.00 0.00 41 998.4
20260504201510 80 93 1.0 1.0 0.00 0.00 0.00 40 998.6
20260504201008 79 329 3.0 5.0 0.00 0.00 0.00 39 998.5
20260504200504 78 182 1.0 2.0 0.00 0.00 0.00 42 998.7
20260504200001 78 86 1.0 2.0 0.00 0.00 0.00 38 998.8
20260504195457 77 73 1.0 3.0 0.00 0.00 0.00 43 998.9
20260504194954 77 103 0.0 0.0 0.00 0.00 0.00 43 998.8
20260504194450 79 121 1.0 2.0 0.00 0.00 0.00 42 998.9
20260504193946 80 110 2.0 3.0 0.00 0.00 0.00 41 999.0
20260504193443 80 64 3.0 3.0 0.00 0.00 0.00 42 999.1
20260504192942 78 111 1.0 1.0 0.00 0.00 0.00 43 999.2
20260504192439 77 167 4.0 5.0 0.00 0.00 0.00 43 999.2
20260504191938 77 134 3.0 5.0 0.00 0.00 0.00 45 999.3
20260504191435 78 103 2.0 2.0 0.00 0.00 0.00 46 999.6
20260504190935 78 97 4.0 5.0 0.00 0.00 0.00 44 999.3
20260504190432 77 280 3.0 5.0 0.00 0.00 0.00 43 999.5
20260504185928 78 217 2.0 2.0 0.00 0.00 0.00 47 999.6
20260504185426 78 94 1.0 1.0 0.00 0.00 0.00 44 999.7
20260504184921 78 258 3.0 7.0 0.00 0.00 0.00 44 999.6
20260504184417 77 103 2.0 2.0 0.00 0.00 0.00 44 999.9
20260504183914 77 99 0.0 1.0 0.00 0.00 0.00 46 999.9
20260504183411 77 98 1.0 1.0 0.00 0.00 0.00 46 999.8
20260504182909 78 163 3.0 3.0 0.00 0.00 0.00 45 1000.1
20260504182406 78 102 1.0 2.0 0.00 0.00 0.00 45 1000.1
20260504181902 78 58 0.0 1.0 0.00 0.00 0.00 45 1000.0
20260504181400 77 107 1.0 2.0 0.00 0.00 0.00 47 1000.5
20260504180858 78 123 1.0 1.0 0.00 0.00 0.00 45 1000.6
20260504180357 77 112 0.0 0.0 0.00 0.00 0.00 49 1000.4
20260504175855 76 112 1.0 1.0 0.00 0.00 0.00 50 1000.3
20260504175351 77 129 1.0 2.0 0.00 0.00 0.00 47 1000.7
20260504174849 77 52 2.0 2.0 0.00 0.00 0.00 50 1000.5
20260504174346 75 184 3.0 5.0 0.00 0.00 0.00 48 1000.7
20260504173843 76 132 1.0 1.0 0.00 0.00 0.00 47 1000.7
20260504173340 77 104 0.0 1.0 0.00 0.00 0.00 46 1000.6
20260504172837 77 112 1.0 1.0 0.00 0.00 0.00 52 1000.8
20260504172334 76 102 1.0 1.0 0.00 0.00 0.00 46 1000.9
20260504171829 76 107 1.0 1.0 0.00 0.00 0.00 49 1001.0
20260504171327 76 115 0.0 1.0 0.00 0.00 0.00 52 1001.1
20260504170824 76 121 0.0 1.0 0.00 0.00 0.00 50 1001.2
20260504170321 75 107 0.0 1.0 0.00 0.00 0.00 50 1001.2
20260504160239 72 136 3.0 3.0 0.00 0.00 0.00 51 1001.9
20260504150704 70 122 1.0 1.0 0.00 0.00 0.00 57 1002.1
20260504150201 69 105 0.0 1.0 0.00 0.00 0.00 56 1002.1
20260504141130 65 81 0.0 0.0 0.00 0.00 0.00 61 1002.3
20260504140627 64 89 0.0 0.0 0.00 0.00 0.00 63 1002.4
20260504140122 63 168 0.0 0.0 0.00 0.00 0.00 64 1002.6
20260504130551 57 94 0.0 0.0 0.00 0.00 0.00 78 1002.6
20260504110433 47 104 0.0 0.0 0.00 0.00 0.00 99 1001.9
20260504100355 47 105 0.0 0.0 0.00 0.00 0.00 99 1001.9
20260504081748 48 107 0.0 0.0 0.00 0.00 0.00 99 1001.9
20260504081245 48 107 0.0 0.0 0.00 0.00 0.00 99 1001.6
20260504080741 48 107 0.0 0.0 0.00 0.00 0.00 99 1001.6
20260504080238 48 107 0.0 0.0 0.00 0.00 0.00 99 1001.7
20260504070205 49 107 0.0 0.0 0.00 0.00 0.00 98 1002.1
20260504060126 50 107 0.0 0.0 0.00 0.00 0.00 96 1002.7
20260504050554 51 107 0.0 0.0 0.00 0.00 0.00 94 1002.6
20260504045548 51 107 0.0 0.0 0.00 0.00 0.00 93 1002.6
20260504045043 51 107 0.0 0.0 0.00 0.00 0.00 93 1002.7
20260504044541 51 107 0.0 0.0 0.00 0.00 0.00 92 1002.8
20260504044037 51 107 0.0 0.0 0.00 0.00 0.00 92 1002.8
20260504043534 52 107 0.0 0.0 0.00 0.00 0.00 93 1002.9
20260504043032 51 107 0.0 0.0 0.00 0.00 0.00 92 1002.8
20260504042529 51 107 0.0 0.0 0.00 0.00 0.00 91 1003.0
20260504042026 52 107 0.0 0.0 0.00 0.00 0.00 91 1003.0
20260504041521 52 107 0.0 0.0 0.00 0.00 0.00 91 1002.8
20260504041017 52 107 0.0 0.0 0.00 0.00 0.00 91 1002.9
20260504040515 52 107 0.0 0.0 0.00 0.00 0.00 91 1003.1
20260504040012 52 107 0.0 0.0 0.00 0.00 0.00 90 1002.9
20260504035509 52 107 0.0 0.0 0.00 0.00 0.00 90 1002.9
20260504035005 52 107 0.0 0.0 0.00 0.00 0.00 89 1003.0
20260504034503 52 107 0.0 0.0 0.00 0.00 0.00 89 1003.2
20260504034000 53 107 0.0 0.0 0.00 0.00 0.00 89 1003.4
20260504033457 53 107 0.0 0.0 0.00 0.00 0.00 88 1003.2
20260504032955 53 107 0.0 0.0 0.00 0.00 0.00 86 1003.3
20260504032451 53 107 0.0 0.0 0.00 0.00 0.00 86 1003.2
20260504031948 53 107 0.0 0.0 0.00 0.00 0.00 84 1003.2
20260504031445 53 107 0.0 0.0 0.00 0.00 0.00 85 1003.3
20260504030942 53 107 0.0 0.0 0.00 0.00 0.00 83 1003.1
20260504030439 53 105 0.0 0.0 0.00 0.00 0.00 82 1003.5
20260504025935 54 112 0.0 0.0 0.00 0.00 0.00 82 1003.4
20260504025432 54 111 0.0 0.0 0.00 0.00 0.00 81 1003.0
20260504024929 54 111 0.0 0.0 0.00 0.00 0.00 81 1003.0
20260504024426 54 111 0.0 0.0 0.00 0.00 0.00 81 1003.1
20260504023923 54 111 0.0 0.0 0.00 0.00 0.00 80 1003.1
20260504023419 55 111 0.0 0.0 0.00 0.00 0.00 80 1003.0
20260504022915 55 109 0.0 0.0 0.00 0.00 0.00 79 1003.1
20260504022411 55 109 0.0 0.0 0.00 0.00 0.00 77 1003.0
20260504021908 55 109 0.0 0.0 0.00 0.00 0.00 77 1002.9
20260504021405 55 109 0.0 0.0 0.00 0.00 0.00 77 1002.8
20260504020857 55 109 0.0 0.0 0.00 0.00 0.00 77 1002.6
20260504020353 56 109 0.0 0.0 0.00 0.00 0.00 77 1002.8
20260504015849 56 109 0.0 0.0 0.00 0.00 0.00 76 1002.7
20260504015346 56 109 0.0 0.0 0.00 0.00 0.00 75 1002.6
20260504014842 57 109 0.0 0.0 0.00 0.00 0.00 74 1002.7
20260504014338 57 111 0.0 0.0 0.00 0.00 0.00 73 1002.6
20260504013836 57 111 0.0 0.0 0.00 0.00 0.00 73 1002.7
20260504013334 57 114 0.0 0.0 0.00 0.00 0.00 72 1002.6
20260504012830 58 114 0.0 0.0 0.00 0.00 0.00 70 1002.3
20260504012328 58 114 0.0 0.0 0.00 0.00 0.00 70 1002.4
20260504011825 59 109 0.0 0.0 0.00 0.00 0.00 69 1002.4
20260504011322 59 109 0.0 0.0 0.00 0.00 0.00 68 1002.6
20260504010817 59 109 0.0 0.0 0.00 0.00 0.00 68 1002.4
20260504010313 60 109 0.0 0.0 0.00 0.00 0.00 66 1002.2
20260504005810 60 109 0.0 0.0 0.00 0.00 0.00 64 1002.4
20260504005307 60 109 0.0 0.0 0.00 0.00 0.00 63 1002.3
20260504004805 61 109 0.0 0.0 0.00 0.00 0.00 62 1002.1
20260504004302 61 109 0.0 0.0 0.00 0.00 0.00 61 1002.3
20260504003758 62 109 0.0 0.0 0.00 0.00 0.00 61 1002.3
20260504003255 62 109 0.0 0.0 0.00 0.00 0.00 59 1002.0
20260504002752 62 109 0.0 0.0 0.00 0.00 0.00 59 1002.0
20260504002249 63 109 0.0 0.0 0.00 0.00 0.00 57 1002.0
20260504001746 63 109 0.0 0.0 0.00 0.00 0.00 56 1002.0
20260504001243 63 109 0.0 0.0 0.00 0.00 0.00 57 1001.9
20260504000740 64 109 0.0 0.0 0.00 0.00 0.00 55 1002.1
20260504000237 64 109 0.0 0.0 0.00 0.00 0.00 53 1002.1
20260503235735 64 109 0.0 0.0 0.00 0.00 0.00 53 1002.0
20260503235232 65 109 0.0 0.0 0.00 0.00 0.00 53 1002.0
20260503234730 66 109 0.0 0.0 0.00 0.00 0.00 51 1002.0
20260503234228 66 109 0.0 0.0 0.00 0.00 0.00 51 1002.0
20260503233725 66 113 0.0 1.0 0.00 0.00 0.00 47 1002.1
20260503233220 67 119 0.0 0.0 0.00 0.00 0.00 48 1002.2
20260503232717 68 121 1.0 1.0 0.00 0.00 0.00 45 1001.8
20260503232214 68 89 1.0 1.0 0.00 0.00 0.00 47 1002.0
20260503231713 69 89 1.0 1.0 0.00 0.00 0.00 45 1001.9
20260503231209 71 109 1.0 1.0 0.00 0.00 0.00 45 1001.8
20260503230705 71 126 1.0 2.0 0.00 0.00 0.00 40 1002.1
20260503230203 71 132 0.0 0.0 0.00 0.00 0.00 42 1002.0
20260503225700 72 145 1.0 1.0 0.00 0.00 0.00 44 1001.9
20260503225200 72 159 2.0 2.0 0.00 0.00 0.00 40 1002.1
20260503224657 72 157 2.0 2.0 0.00 0.00 0.00 39 1002.1
20260503224155 71 132 0.0 0.0 0.00 0.00 0.00 43 1002.2
20260503223653 71 140 1.0 1.0 0.00 0.00 0.00 37 1002.1
20260503223149 73 111 1.0 2.0 0.00 0.00 0.00 38 1002.2
20260503222646 72 183 4.0 6.0 0.00 0.00 0.00 39 1002.4
20260503222144 73 158 1.0 1.0 0.00 0.00 0.00 39 1002.2
20260503221642 73 135 1.0 1.0 0.00 0.00 0.00 40 1002.2
20260503221139 72 81 2.0 2.0 0.00 0.00 0.00 40 1002.4
20260503220636 72 125 1.0 1.0 0.00 0.00 0.00 40 1002.2
20260503220132 73 237 2.0 2.0 0.00 0.00 0.00 39 1002.2
20260503215630 72 131 0.0 0.0 0.00 0.00 0.00 47 1002.2
20260503215126 72 165 2.0 2.0 0.00 0.00 0.00 40 1002.4
20260503214625 72 138 1.0 2.0 0.00 0.00 0.00 40 1002.4
20260503214120 72 127 2.0 3.0 0.00 0.00 0.00 38 1002.3
20260503213615 72 249 2.0 3.0 0.00 0.00 0.00 39 1002.5
20260503213110 71 132 1.0 1.0 0.00 0.00 0.00 36 1002.3
20260503212608 72 143 1.0 1.0 0.00 0.00 0.00 38 1002.7
20260503212105 72 90 1.0 1.0 0.00 0.00 0.00 39 1002.7
20260503211603 71 316 3.0 5.0 0.00 0.00 0.00 39 1002.7
20260503211058 72 162 2.0 2.0 0.00 0.00 0.00 39 1002.6
20260503210555 72 120 2.0 2.0 0.00 0.00 0.00 38 1002.7
20260503210050 73 78 1.0 2.0 0.00 0.00 0.00 39 1003.1
20260503205547 73 151 2.0 2.0 0.00 0.00 0.00 38 1002.9
20260503205044 72 144 1.0 2.0 0.00 0.00 0.00 38 1003.0
20260503204541 71 197 1.0 2.0 0.00 0.00 0.00 40 1003.1
20260503204038 72 146 1.0 1.0 0.00 0.00 0.00 41 1003.1
20260503203535 72 134 0.0 0.0 0.00 0.00 0.00 39 1003.5
20260503203032 72 201 2.0 2.0 0.00 0.00 0.00 37 1003.5
20260503202530 72 123 0.0 0.0 0.00 0.00 0.00 47 1003.4